Dewpoint
55 56 56 56 56 56 56 56 56 56 57 57 58 57 58 58 58 58 58 58 58 58 57 57 57 57 56 56 56 56 56 50 47 49 49 44 56 64 62 54 58 62 61 59 57 53 54 58 58 58 56 56 55 55 55 57 59 63 60 59 55 59 57 54 59 50 56 58 52 55 56 55 54 56 56 57 57 57 57 58 58 58 59 62 60 57 58 60
55 55 55 56 56 56 56 56 56 57 57 57 57 58 58 58 58 58 58 58 58 58 58 57 57 57 56 56 56 56 54 49 46 44 42 54 62 63 64 59 62 60 62 56 55 51 55 57 58 58 55 54 55 54 55 56 58 59 58 58 56 57 57 55 55 50 54 55 53 55 55 54 54 56 54 56 55 55 57 57 58 58 60 61 60 57 58 59
55 56 55 55 56 56 56 56 56 57 57 57 57 57 57 57 58 58 58 58 58 58 58 58 57 57 56 56 56 56 52 49 46 44 44 64 64 61 63 61 63 63 57 52 54 51 54 55 55 56 54 53 53 52 54 54 55 57 57 54 50 56 62 54 51 52 51 52 52 54 54 54 55 55 53 55 54 55 56 55 57 58 58 60 59 56 57 60
56 55 55 55 55 56 55 56 56 57 56 57 57 57 57 58 58 58 57 57 57 58 58 58 58 57 56 56 56 53 51 49 43 50 57 64 66 66 62 60 62 60 56 49 54 51 52 52 53 54 51 50 51 51 52 52 53 52 55 51 57 57 53 51 53 52 52 53 52 53 54 55 53 55 53 58 55 54 55 56 57 56 56 60 59 57 57 58
55 55 55 56 56 55 55 56 56 56 56 57 57 57 57 57 57 57 57 57 57 57 57 57 58 57 56 57 56 52 48 25 35 45 56 70 69 68 64 62 62 49 50 49 53 50 49 50 52 52 49 47 47 50 50 52 54 51 51 49 52 56 50 53 54 53 52 53 53 54 51 53 53 56 53 54 61 58 53 56 58 58 57 59 59 58 58 58
55 55 55 55 55 55 55 56 56 56 56 57 56 56 56 56 57 57 57 57 57 57 58 58 58 57 57 57 54 51 47 18 34 47 68 67 71 71 67 63 64 50 44 46 50 49 48 48 51 50 47 47 43 47 46 50 54 49 51 51 51 51 58 59 54 54 53 52 52 51 52 54 53 54 54 55 53 54 56 58 58 58 58 60 59 58 57 58
55 55 55 55 55 55 55 56 56 56 56 56 56 56 56 56 56 56 56 57 57 57 57 58 58 57 56 57 50 49 47 35 35 45 68 67 65 72 68 65 64 51 41 44 47 48 47 46 49 46 44 44 42 43 44 45 50 51 48 50 50 49 51 56 54 55 53 51 53 53 54 53 52 52 54 54 54 57 56 56 59 58 58 59 58 59 57 58
55 55 55 55 55 55 55 55 56 56 56 56 56 56 56 56 56 56 57 57 57 57 58 57 57 57 56 51 49 49 42 17 33 34 70 69 67 68 66 50 47 47 41 46 48 45 44 45 47 45 40 40 37 40 43 41 44 47 47 49 51 53 53 54 55 55 54 53 53 52 51 51 52 51 52 54 54 56 56 57 57 58 58 59 59 58 58 58
55 55 54 55 55 54 54 55 55 56 56 56 56 56 55 55 56 56 56 57 57 58 58 58 58 56 57 52 39 35 23 30 28 32 39 47 54 58 49 41 43 44 45 50 49 42 42 43 46 42 37 38 37 33 38 38 40 45 46 46 46 47 51 54 54 54 53 52 52 51 50 50 51 52 51 53 54 55 57 58 58 59 59 59 59 59 58 59
54 54 54 54 55 55 55 55 56 56 56 56 55 55 55 55 55 56 56 57 58 58 58 57 57 57 53 48 43 30 32 29 30 32 38 46 46 44 39 39 40 49 51 51 47 41 42 42 44 41 37 36 32 28 31 35 38 42 42 42 42 45 48 50 51 53 52 52 52 50 49 49 50 51 48 52 53 56 57 58 59 59 58 59 59 59 59 58
54 54 54 54 55 55 55 56 56 56 56 55 55 55 55 55 56 56 57 58 59 59 57 58 57 56 48 46 38 25 27 23 25 26 36 46 42 39 41 42 43 51 52 51 46 43 43 40 41 39 34 32 30 28 27 29 37 39 41 43 44 43 44 46 50 51 51 51 52 54 50 51 48 48 48 50 53 56 56 58 59 59 59 59 59 59 60 59
54 54 54 54 55 54 55 55 56 55 55 55 54 55 55 55 56 56 57 58 58 58 57 58 58 52 46 44 35 29 31 28 27 29 35 37 43 41 44 47 46 50 52 51 48 45 42 39 39 35 31 29 27 27 26 30 36 38 37 33 38 42 40 42 43 47 50 50 51 50 47 46 46 45 48 50 54 55 56 58 58 59 59 59 60 59 60 59
54 54 54 54 54 54 55 55 55 55 55 54 55 54 54 55 56 57 59 58 57 58 58 58 58 50 48 44 35 30 31 33 31 26 33 34 35 42 44 48 47 48 51 50 47 44 41 40 37 33 33 25 18 24 29 30 30 31 35 35 36 36 35 35 38 40 45 48 49 48 45 49 46 46 47 51 54 54 55 57 57 59 59 60 59 59 60 59
54 54 54 54 54 54 55 55 55 55 54 54 54 54 54 54 56 59 59 59 58 59 59 59 55 50 48 43 29 29 28 32 30 27 25 32 31 34 41 47 51 49 52 50 47 45 42 40 38 35 33 30 23 24 27 27 27 28 32 33 31 29 28 31 35 39 41 46 47 46 44 45 45 45 46 52 53 52 54 55 56 58 58 59 59 59 59 59
53 54 54 54 54 54 54 54 54 54 54 54 53 53 54 54 57 59 59 59 59 59 59 59 51 51 47 32 29 25 54 33 33 27 20 30 34 36 38 47 50 52 51 50 49 47 44 41 39 36 34 34 30 24 25 25 22 22 23 25 26 25 25 27 31 36 40 44 46 45 43 47 44 45 45 52 52 51 54 55 55 57 58 59 59 59 59 59
53 53 53 53 53 54 54 54 53 54 54 53 52 52 55 56 59 59 59 61 61 59 58 55 54 49 42 31 33 45 36 24 16 19 20 24 33 36 39 45 47 50 51 49 50 47 45 42 38 37 36 34 28 23 22 20 17 22 22 22 22 22 23 24 27 32 39 43 44 44 43 43 44 48 48 51 51 50 52 54 55 56 58 59 59 59 59 59
53 53 53 53 53 54 54 53 53 54 52 52 52 52 54 57 59 60 60 60 58 57 55 51 37 41 41 20 24 28 15 16 18 18 21 23 24 33 41 43 48 48 45 43 44 45 44 43 41 37 34 30 26 21 20 17 13 14 20 20 22 21 21 22 29 34 40 41 42 44 43 47 49 45 45 49 50 50 51 52 54 56 57 59 59 59 59 59
52 53 53 53 54 53 53 53 53 52 52 51 52 50 49 60 61 61 60 57 54 54 52 50 47 40 37 25 14 14 16 16 16 17 20 26 21 33 40 42 47 45 40 39 41 42 43 38 35 30 30 28 27 20 16 13 10 10 16 20 20 21 21 21 25 35 37 40 40 43 43 43 51 50 48 48 48 49 51 52 53 55 56 58 58 59 60 60
52 53 53 53 53 53 53 53 52 51 51 52 52 54 55 56 57 53 47 52 48 50 45 40 36 21 11 14 15 15 15 17 19 18 17 21 21 24 38 43 45 42 35 35 36 37 37 32 29 28 25 25 26 21 12 9 8 7 12 17 20 20 20 21 22 32 36 36 38 41 42 42 43 48 49 49 48 49 50 52 53 54 56 59 59 58 59 60
52 52 53 53 52 53 52 52 51 51 50 49 42 50 47 42 42 39 40 37 24 9 11 16 16 16 15 14 15 15 18 19 17 19 22 22 19 25 38 43 42 40 34 31 34 33 33 27 25 23 23 23 22 22 17 9 7 9 9 13 16 19 20 21 22 26 35 35 37 38 41 42 43 44 44 47 47 49 49 50 53 55 56 58 58 58 60 61
52 52 52 53 52 52 52 52 51 50 51 47 41 33 23 24 20 24 24 16 12 13 16 18 18 16 16 16 16 16 17 16 21 23 24 24 20 34 38 38 37 34 32 31 31 33 31 27 23 23 21 21 20 20 20 16 9 12 18 14 11 16 18 20 22 24 34 33 35 37 37 40 42 45 47 51 47 46 47 48 53 55 56 57 59 59 60 61
52 52 52 52 52 52 51 51 51 50 50 48 45 26 27 28 28 30 29 22 18 14 17 18 18 17 14 15 17 16 16 16 19 22 24 24 29 32 37 32 34 30 31 30 30 31 29 26 22 22 21 20 21 20 17 16 11 10 14 16 14 11 16 18 23 25 31 34 33 35 36 38 39 41 45 47 44 48 47 48 51 56 56 57 58 59 60 61
52 52 52 52 52 51 51 51 50 50 48 39 28 26 27 29 31 34 31 29 22 16 17 18 16 15 10 15 16 15 13 13 14 19 25 27 32 29 36 29 30 29 28 28 27 29 28 27 25 21 20 19 20 18 15 14 13 13 13 15 15 15 14 15 19 24 21 30 31 34 32 34 38 40 42 43 42 45 49 48 49 53 56 56 57 59 60 60
52 52 52 52 52 51 51 50 50 47 47 32 29 29 31 31 32 29 30 27 20 16 16 17 15 15 10 12 14 15 12 13 12 18 21 25 29 30 32 34 29 29 25 27 25 26 26 27 27 23 20 22 19 16 17 14 12 13 13 12 12 13 17 18 19 22 25 30 31 30 29 32 35 35 38 42 42 41 45 47 49 52 55 56 60 58 60 60
52 52 53 52 51 51 49 50 40 36 31 33 28 29 30 34 37 32 29 30 25 13 19 15 15 15 9 14 15 13 13 12 11 14 19 19 19 28 29 34 33 29 26 26 26 24 24 25 25 24 21 21 20 18 19 17 14 10 10 11 13 11 10 14 17 16 19 25 28 28 28 30 34 34 36 38 41 42 44 48 48 51 55 58 57 57 59 59
52 52 53 52 52 51 50 47 37 30 29 30 29 30 31 32 34 39 32 29 15 15 16 16 8 10 8 10 11 11 13 10 14 17 19 20 27 24 24 25 31 29 28 25 25 25 23 24 22 19 20 20 20 18 18 18 15 12 9 12 15 11 5 8 12 18 26 27 27 28 26 27 31 32 35 38 39 42 43 46 46 48 54 57 58 58 58 59
52 53 52 52 51 50 43 35 38 34 31 29 30 30 30 32 47 37 24 22 13 15 15 8 9 8 9 8 7 10 10 12 15 16 18 24 18 22 19 18 26 27 28 27 26 24 25 23 22 20 19 19 19 18 17 20 17 13 9 9 10 7 4 7 14 16 21 26 26 24 23 24 25 27 34 35 38 41 42 44 47 45 52 56 54 55 60 56
53 52 51 51 50 50 46 44 40 33 30 31 31 30 33 40 44 37 29 17 10 14 11 12 10 10 9 8 8 7 9 14 13 17 22 22 19 20 16 15 19 25 25 29 25 24 24 22 21 19 18 16 16 17 19 20 16 11 7 8 10 9 6 5 12 20 24 24 25 24 25 27 25 26 29 31 33 40 41 42 45 47 52 53 56 53 55 59
52 52 52 51 50 49 50 44 38 33 32 32 31 32 32 43 36 32 24 18 16 10 11 10 11 10 8 7 7 6 6 12 9 17 21 22 19 19 16 14 13 15 20 24 25 26 25 23 20 18 18 16 16 19 20 18 13 12 8 10 12 13 11 5 3 12 21 24 24 25 20 25 28 27 27 32 32 36 39 41 42 45 52 57 55 55 57 59
52 51 51 51 49 48 48 46 43 37 34 34 34 37 33 33 34 25 18 13 13 8 10 10 10 8 8 6 5 7 7 9 10 13 14 16 22 19 16 17 16 15 15 19 22 23 22 28 25 18 19 20 19 17 15 14 12 12 10 11 16 17 17 16 10 12 13 15 19 18 19 23 26 30 28 29 31 33 36 41 42 45 53 56 56 53 53 59
51 51 50 50 47 41 37 36 34 35 36 39 37 34 33 33 26 22 16 11 11 10 10 9 8 9 7 7 4 7 7 8 10 12 10 19 13 14 15 15 15 12 13 14 17 23 24 25 22 20 20 20 19 15 14 14 12 12 11 9 12 19 21 21 16 16 12 9 11 10 15 20 24 30 29 30 32 32 35 37 41 45 53 53 56 53 52 56
50 50 50 50 47 46 37 34 36 36 40 40 36 33 28 24 21 12 7 13 10 8 7 7 8 7 8 7 5 5 6 6 14 11 12 16 16 16 15 14 16 14 10 9 10 18 20 22 24 26 28 19 19 17 15 17 16 13 13 16 12 17 23 18 18 13 9 8 10 4 11 17 23 31 30 28 26 31 36 37 40 44 45 54 55 53 51 55
50 49 49 50 49 43 39 40 40 42 41 36 35 32 28 22 21 16 8 7 6 10 9 9 8 7 7 6 6 7 7 5 8 10 14 12 10 16 18 16 19 20 17 12 8 8 15 20 20 23 24 27 21 17 15 17 19 17 15 17 17 16 17 20 17 16 12 8 3 6 10 13 19 23 28 27 29 29 30 35 39 40 46 55 55 53 49 54
49 49 50 46 41 40 39 45 43 39 35 38 35 30 25 18 15 26 11 9 9 10 8 8 8 8 7 5 8 7 4 12 10 8 10 13 15 14 20 20 18 14 13 12 14 10 10 16 18 19 21 24 25 21 18 17 19 20 18 15 18 20 16 21 19 15 12 13 8 3 9 16 12 20 22 25 28 31 31 33 38 39 42 52 54 54 52 54
49 50 50 48 44 42 41 37 40 37 36 32 28 26 22 20 17 13 12 10 10 9 8 9 8 4 8 9 10 10 5 7 8 4 8 10 12 11 15 20 20 18 17 14 16 18 14 11 15 18 18 24 26 25 23 19 18 20 21 20 18 18 20 17 20 17 15 12 13 14 10 14 18 24 21 25 24 28 28 31 36 36 39 51 52 53 50 51
49 46 45 44 40 35 33 32 35 36 35 30 26 25 18 18 13 12 13 13 10 8 8 7 6 5 4 6 12 10 10 5 7 6 6 10 20 21 22 21 19 19 18 19 19 15 13 13 14 17 18 18 25 27 24 23 19 19 20 20 19 19 17 20 23 22 20 17 18 20 18 12 16 18 19 20 21 25 29 33 33 37 40 46 46 47 50 51
46 44 40 40 36 33 34 34 35 36 35 30 27 24 16 17 16 14 17 11 11 9 9 6 10 6 9 7 8 10 10 8 7 6 5 14 15 20 19 21 21 19 20 20 19 19 21 20 18 19 19 17 21 25 25 22 20 18 18 19 20 19 18 21 17 25 22 18 18 14 16 20 16 17 22 21 20 20 24 28 30 36 39 39 41 46 52 52
48 45 39 37 34 34 34 37 35 36 31 29 26 29 21 15 16 15 14 11 10 10 8 9 11 11 9 9 5 10 10 2 10 10 6 11 12 24 21 21 22 21 20 20 19 19 20 20 20 23 23 20 17 18 23 24 21 18 17 19 16 18 18 21 21 19 20 20 21 20 18 17 19 22 19 23 23 22 26 28 28 29 32 36 37 39 46 49
49 45 37 36 34 31 33 38 33 35 32 27 24 25 19 17 17 14 14 13 12 12 10 11 10 14 9 7 11 9 11 5 10 8 9 9 10 23 19 22 20 20 20 20 18 19 21 19 20 20 21 22 22 21 19 15 21 18 18 21 21 19 19 20 21 25 25 20 19 17 19 19 21 24 22 20 24 25 21 23 23 23 27 29 33 33 36 42
44 38 30 36 33 33 38 34 32 33 28 24 22 19 19 18 17 16 15 16 13 13 14 12 14 10 12 13 8 5 10 12 11 9 10 9 9 20 18 19 18 19 18 19 19 20 21 26 20 18 16 19 20 22 21 22 19 17 18 20 23 22 17 19 19 20 22 24 22 22 17 21 22 20 22 25 25 24 22 22 25 22 24 23 27 28 34 38
42 38 32 36 33 35 34 32 31 29 25 25 22 20 19 19 18 18 17 16 16 15 13 15 14 14 15 13 9 8 13 12 12 10 9 9 5 15 22 20 19 17 16 17 18 19 22 21 19 16 17 15 17 21 23 22 21 19 18 21 23 22 20 19 20 18 18 20 24 23 23 27 17 15 16 20 25 24 25 23 21 21 16 25 26 30 34 35
43 30 34 36 34 34 33 30 26 26 24 24 23 22 24 27 21 20 18 17 17 16 16 15 17 13 16 16 13 13 14 12 8 11 10 8 15 12 19 19 18 16 14 18 18 25 28 28 27 21 18 18 18 17 20 21 21 20 18 15 18 22 22 21 20 20 20 19 19 23 23 28 28 26 26 20 22 21 23 20 20 17 21 18 23 23 32 39
33 32 38 37 35 33 32 28 30 30 27 26 24 23 22 21 21 19 19 19 18 16 14 16 16 13 16 16 17 9 12 11 11 10 9 13 14 18 20 19 18 14 15 15 17 25 34 26 25 23 25 25 21 22 23 21 20 21 21 23 15 16 19 19 21 25 23 23 23 21 24 22 25 34 29 23 28 20 27 20 26 21 22 26 27 28 35 40
36 35 32 34 35 34 32 29 27 26 26 25 24 23 23 23 20 20 19 18 21 15 16 16 17 19 17 15 15 15 14 14 12 14 14 17 16 22 19 19 20 14 15 22 27 27 23 29 26 22 22 21 22 23 23 24 22 20 20 21 22 19 18 20 22 28 30 23 22 22 20 19 26 31 31 26 22 19 21 21 25 28 28 22 27 31 36 45
41 39 34 33 34 31 29 29 27 27 25 26 25 24 23 22 25 25 21 21 22 16 20 20 21 20 17 18 18 13 14 13 13 13 13 16 20 19 17 20 21 17 16 24 34 25 23 24 29 22 19 18 16 18 25 25 22 21 23 22 20 19 22 21 19 28 27 34 33 25 23 27 26 33 30 28 25 28 24 24 21 25 32 28 27 27 44 51
33 35 31 30 28 30 30 30 27 26 27 28 27 25 23 24 23 24 23 22 23 22 20 21 19 19 18 19 19 18 17 16 17 21 23 22 22 23 19 20 20 18 25 32 29 20 21 24 27 27 26 24 29 33 30 26 23 22 17 18 19 21 21 26 26 24 26 32 30 34 33 33 29 23 30 31 30 25 34 42 40 40 39 38 44 45 39 48
36 33 33 34 35 30 28 24 27 26 29 29 32 26 25 24 23 24 24 25 25 22 19 20 21 20 25 22 23 22 21 21 24 24 22 22 22 22 20 19 19 23 28 26 27 21 24 20 20 27 26 26 24 26 23 21 20 21 22 21 22 20 23 26 25 25 34 28 25 34 39 33 33 30 32 40 47 48 46 47 42 41 43 43 40 43 55 43
34 34 34 37 33 30 31 27 27 28 27 28 31 26 26 24 24 26 24 23 22 19 22 29 23 24 21 22 26 24 25 28 28 25 25 25 25 22 22 22 19 28 29 19 20 22 19 15 16 17 17 16 17 19 19 19 19 20 20 20 21 22 24 26 28 27 32 29 28 35 38 35 34 32 36 49 49 48 45 44 43 43 42 50 54 49 40 33
36 35 33 35 33 31 30 29 29 30 32 31 29 30 26 25 24 24 26 23 23 23 23 25 26 25 23 24 26 27 31 24 24 30 29 27 27 27 24 23 21 20 19 20 19 25 20 14 15 16 18 16 15 15 18 19 20 20 21 22 21 22 24 24 25 26 26 33 32 31 37 37 36 35 32 46 48 46 45 44 43 46 42 48 49 51 43 42
37 36 35 34 36 32 30 28 28 29 30 34 33 30 30 28 26 25 28 24 27 25 26 25 26 26 25 25 28 27 30 31 29 25 28 29 27 28 26 27 30 23 23 22 22 27 20 21 21 15 14 13 12 14 17 16 16 18 20 21 20 21 22 23 23 25 28 27 27 28 34 35 35 39 38 41 49 45 45 43 42 44 44 47 49 49 49 48
39 43 44 39 34 33 33 30 29 30 29 30 29 32 30 28 30 31 29 27 26 28 30 28 26 27 27 27 28 28 29 31 31 28 28 29 26 28 27 28 26 26 27 26 25 26 24 21 18 17 14 13 14 13 11 13 13 14 17 20 21 21 21 21 23 25 27 30 30 28 32 33 35 36 36 46 47 46 46 48 47 48 46 47 44 40 42 49
42 42 43 40 33 36 34 30 29 29 27 29 33 32 32 29 31 30 31 30 29 31 31 28 28 26 29 29 29 29 30 30 29 28 29 27 25 24 23 24 22 24 25 24 27 24 25 27 21 17 13 13 12 11 7 7 11 13 14 17 20 22 23 22 23 26 27 27 27 29 30 33 36 51 48 47 47 48 50 49 49 49 52 47 46 47 49 50